Bardonecchia, Italy 16 day weather forecast

Slopes altitude range 1545 m - 1545m

Number of lifts: 21 Pistes: 100km

In some cases the lift and piste totals shown are for the ski domain (e.g. Three Valleys) rather than individual resort (e.g. Courchevel)

Overview

The 16 day weather forecast is fully updated 4 times every day.

    • Wed 26 JUN 2019
    • Wed 26
    • 19C 24C
    • Thu 27 JUN 2019
    • Thu 27
    • 19C 24C
    • Fri 28 JUN 2019
    • Fri 28
    • 18C 23C
    • Sat 29 JUN 2019
    • Sat 29
    • 13C 22C
    • Sun 30 JUN 2019
    • Sun 30
    • 15C 22C
    • Mon 01 JUL 2019
    • Mon 01
    • 17C 22C
    • Tue 02 JUL 2019
    • Tue 02
    • 15C 19C
    • Wed 03 JUL 2019
    • Wed 03
    • 13C 16C
    • Thu 04 JUL 2019
    • Thu 04
    • 13C 20C
    • Fri 05 JUL 2019
    • Fri 05
    • 14C 24C
    • Sat 06 JUL 2019
    • Sat 06
    • 14C 22C
    • Sun 07 JUL 2019
    • Sun 07
    • 11C 15C
    • Mon 08 JUL 2019
    • Mon 08
    • 15C 25C
    • Tue 09 JUL 2019
    • Tue 09
    • 15C 25C
    • Wed 10 JUL 2019
    • Wed 10
    • 15C 25C
    • Thu 11 JUL 2019
    • Thu 11
    • 15C 22C

Date:

Time Type 0°C level Temp Chill Snow Cloud Speed Gust Dir Press
3:00 4612m 11°C 11_2 0cm 0% 2mph 3mph 1024mB
6:00 4588m 11°C 11_1 0cm 2% 1mph 2mph 1025mB
9:00 4621m 19°C 19_4 0cm 0% 4mph 5mph 1024mB
12:00 4644m 24°C 24_8 0cm 0% 8mph 6mph 1024mB
15:00 4623m 24°C 24_8 0cm 27% 8mph 5mph 1023mB
18:00 4491m 24°C 24_7 0cm 63% 7mph 7mph 1024mB
21:00 4601m 12°C 12_2 0cm 100% 2mph 4mph 1026mB
0:00 4637m 12°C 12_1 0cm 100% 1mph 2mph 1025mB
3:00 4570m 12°C 12_2 0cm 48% 2mph 3mph 1024mB
6:00 4587m 12°C 12_3 0cm 31% 3mph 4mph 1023mB
9:00 4543m 19°C 19_5 0cm 0% 5mph 5mph 1022mB
12:00 4591m 24°C 24_8 0cm 0% 8mph 7mph 1021mB
15:00 4643m 24°C 24_9 0cm 11% 9mph 8mph 1019mB
18:00 4640m 24°C 24_9 0cm 13% 9mph 12mph 1018mB
21:00 4619m 15°C 15_7 0cm 4% 7mph 8mph 1020mB
0:00 4661m 13°C 13_6 0cm 2% 6mph 7mph 1019mB
3:00 4702m 12°C 12_6 0cm 0% 6mph 7mph 1018mB
6:00 4713m 12°C 12_5 0cm 0% 5mph 6mph 1017mB
9:00 4688m 18°C 18_9 0cm 0% 9mph 9mph 1017mB
12:00 4686m 23°C 23_10 0cm 0% 10mph 9mph 1015mB
15:00 4747m 23°C 23_11 0cm 0% 11mph 10mph 1015mB
18:00 4810m 23°C 23_10 0cm 0% 10mph 13mph 1015mB
21:00 4849m 13°C 13_8 0cm 0% 8mph 10mph 1017mB
0:00 4846m 11°C 11_2 0cm 0% 2mph 3mph 1017mB
3:00 4852m 9°C 9_2 0cm 0% 2mph 3mph 1018mB
6:00 4828m 8°C 8_4 0cm 1% 4mph 4mph 1018mB
9:00 4850m 13°C 13_1 0cm 3% 1mph 3mph 1018mB
12:00 4789m 22°C 22_6 0cm 1% 6mph 5mph 1017mB
15:00 4724m 23°C 23_9 0cm 0% 9mph 7mph 1017mB
18:00 4877m 23°C 23_7 0cm 1% 7mph 9mph 1017mB
21:00 4857m 12°C 12_6 0cm 64% 6mph 7mph 1020mB
0:00 4811m 11°C 11_5 0cm 36% 5mph 6mph 1020mB
3:00 4765m 10°C 10_5 0cm 8% 5mph 7mph 1019mB
6:00 4722m 10°C 10_6 0cm 4% 6mph 7mph 1020mB
9:00 4720m 15°C 15_8 0cm 0% 8mph 8mph 1020mB
12:00 4716m 22°C 22_9 0cm 0% 9mph 8mph 1019mB
15:00 4624m 22°C 22_11 0cm 0% 11mph 9mph 1018mB
18:00 4659m 22°C 22_6 0cm 0% 6mph 8mph 1018mB
21:00 4595m 12°C 12_4 0cm 0% 4mph 4mph 1020mB
0:00 4590m 11°C 11_1 0cm 23% 1mph 2mph 1020mB
3:00 4557m 10°C 10_1 0cm 70% 1mph 2mph 1019mB
6:00 4462m 10°C 10_2 0cm 65% 2mph 2mph 1020mB
9:00 4430m 17°C 17_6 0cm 35% 6mph 5mph 1019mB
12:00 4396m 22°C 22_6 0cm 21% 6mph 5mph 1017mB
15:00 4439m 22°C 22_7 0cm 46% 7mph 7mph 1016mB
18:00 4370m 22°C 22_2 0cm 73% 2mph 4mph 1017mB
21:00 4102m 11°C 11_3 0cm 100% 3mph 4mph 1019mB
0:00 4411m 10°C 10_1 0cm 100% 1mph 2mph 1018mB
3:00 4313m 9°C 9_1 0cm 68% 1mph 1mph 1017mB
6:00 4279m 9°C 9_3 0cm 40% 3mph 4mph 1018mB
9:00 4269m 15°C 15_4 0cm 61% 4mph 5mph 1016mB
12:00 4259m 19°C 19_7 0cm 71% 7mph 5mph 1015mB
15:00 4348m 19°C 19_7 0cm 100% 7mph 7mph 1015mB
18:00 4206m 19°C 19_4 0cm 100% 4mph 5mph 1015mB
21:00 4170m 10°C 10_2 0cm 100% 2mph 3mph 1017mB
0:00 4152m 9°C 9_2 0cm 86% 2mph 2mph 1017mB
3:00 4059m 8°C 8_1 0cm 68% 1mph 1mph 1017mB
6:00 4027m 8°C 8_1 0cm 40% 1mph 1mph 1017mB
9:00 4111m 13°C 13_3 0cm 54% 3mph 4mph 1017mB
12:00 4152m 16°C 16_4 0cm 77% 4mph 5mph 1016mB
15:00 4108m 17°C 17_2 0cm 100% 2mph 4mph 1016mB
18:00 4203m 17°C 17_2 0cm 95% 2mph 3mph 1016mB
21:00 4140m 11°C 11_3 0cm 58% 3mph 4mph 1018mB
0:00 4155m 10°C 10_3 0cm 59% 3mph 4mph 1018mB
3:00 4047m 9°C 9_1 0cm 61% 1mph 2mph 1017mB
6:00 4119m 9°C 9_4 0cm 33% 4mph 5mph 1018mB
9:00 4214m 13°C 13_3 0cm 0% 3mph 3mph 1017mB
12:00 4227m 20°C 20_5 0cm 10% 5mph 6mph 1017mB
15:00 4260m 19°C 19_4 0cm 54% 4mph 5mph 1016mB
18:00 4315m 19°C 19_2 0cm 65% 2mph 3mph 1016mB
21:00 4320m 11°C 11_6 0cm 11% 6mph 7mph 1018mB
0:00 4317m 10°C 10_6 0cm 6% 6mph 7mph 1018mB
3:00 4235m 10°C 10_7 0cm 0% 7mph 7mph 1018mB
6:00 4186m 10°C 10_6 0cm 0% 6mph 8mph 1018mB
9:00 4247m 14°C 14_2 0cm 0% 2mph 7mph 1018mB
12:00 4174m 24°C 24_2 0cm 7% 2mph 9mph 1017mB
15:00 4197m 23°C 23_1 0cm 57% 1mph 8mph 1016mB
18:00 4183m 23°C 23_3 0cm 65% 3mph 4mph 1016mB
21:00 4349m 13°C 13_8 0cm 100% 8mph 8mph 1018mB
0:00 4127m 11°C 11_9 0cm 97% 9mph 10mph 1018mB
Afternoon 0.0208333mm 0.0625 4352m 22°C 22_8 0cm 0% 8mph 13mph 1016mB
Morning 0mm 0 4889m 9°C 9_3 0cm 12% 3mph 4mph 1019mB
Afternoon 0.0208333mm 0.0625 4753m 15°C 15_5 0cm 62% 5mph 4mph 1020mB
Morning 0mm 0 4639m 10°C 10_4 0cm 72% 4mph 4mph 1020mB
Afternoon 0.0625mm 0.1875 4536m 25°C 25_5 0cm 68% 5mph 6mph 1017mB
Morning 0mm 0 4457m 12°C 12_5 0cm 10% 5mph 6mph 1018mB
Afternoon 0.0625mm 0.1875 4304m 25°C 25_4 0cm 0% 4mph 11mph 1016mB
Morning 0.145833mm 0.4375 4332m 11°C 11_7 0cm 16% 7mph 7mph 1018mB
Afternoon 0.333333mm 0.9375 4243m 25°C 25_5 0cm 10% 5mph 7mph 1016mB
Morning 0.125mm 0.375 4295m 12°C 12_7 0cm 55% 7mph 7mph 1015mB
Afternoon 0.6875mm 2.0625 4134m 22°C 22_5 0cm 17% 5mph 5mph 1012mB
Morning 0.0833333mm 0.25 3971m 10°C 10_7 0cm 62% 7mph 9mph 1011mB

16 day outlook at a glance

Forecast issued: 6/26/2019 7:48:47 AM

Chat

Your comments and questions. In a resort? Let us know what it's like!


Characters left 250

For terms and conditions see Readers Comments on the Cookie and privacy policy page.